Weather Roundup
Issued by NWS

Home | Current Version | Previous Version | Graphics & Text | Print | Product List | Glossary Off
Versions: 1 2 3 4 5 6 7 8 9 10 11 12 13 14 15 16 17 18 19 20 21 22 23 24 25 26 27 28 29 30 31 32 33 34 35 36 37 38 39 40 41 42 43 44 45 46 47 48 49 50

000
NZUS93 KARX 271710
HRRWXR

CURRENT HOURLY OBSERVATIONS ACROSS
MUCH OF THE UPPER MISSISSIPPI VALLEY
NATIONAL WEATHER SERVICE LA CROSSE WI
1100 AM CST THU NOV 27 2014


...SOUTHEAST MINNESOTA...


CITY           SKY/WX    TMP DP  RH WIND       PRES   REMARKS
ROCHESTER      SUNNY      0  -5  79 NW12      30.46S WCI -17
ROCHESTER/MAYO FAIR       3  -4  72 W8        30.47F WCI -10
WINONA         SUNNY     10   1  67 NW5       30.51S WCI   2
AUSTIN         SUNNY      0  -8  71 NW7       30.47F WCI -13
ALBERT LEA     SUNNY     -2  -8  78 N5        30.48F WCI -12
DODGE CENTER   SUNNY      0  -6  78 NW7       30.46S WCI -13
PRESTON        SUNNY      3  -3  74 NW9       30.45F WCI -12
OWATONNA       SUNNY     -4  -9  77 CALM      30.49F
FARIBAULT      SUNNY      1  -6  71 CALM      30.50F
$$

...ELSEWHERE IN MINNESOTA...


CITY           SKY/WX    TMP DP  RH WIND       PRES   REMARKS
MINNEAPOLIS    SUNNY      5  -4  66 N5        30.51F WCI  -4
INTNL FALLS    SUNNY     -2  -7  79 CALM      30.43F
DULUTH         SUNNY      1  -8  66 NW8       30.39S WCI -13
RED WING         N/A      7  -6  56 N3        30.50F
REDWOOD FALLS  SUNNY      0  -5  79 CALM      30.52F
MANKATO        SUNNY     -6  -9  84 W3        30.51F
WORTHINGTON    SUNNY      0  -6  78 CALM      30.47F
FAIRMONT       SUNNY     -2  -9  71 N5        30.49F WCI -12
$$

...SOUTHWEST WISCONSIN...


CITY           SKY/WX    TMP DP  RH WIND       PRES   REMARKS
LA CROSSE      SUNNY     10   0  63 NW12      30.49R WCI  -5
PRAIRIE DU CHI SUNNY     14   2  57 N9        30.46F WCI   2
BOSCOBEL       SUNNY     17   4  56 W9        30.45R WCI   6
LONE ROCK      SUNNY     21   8  57 NW12      30.42S WCI   9
PLATTEVILLE    PTSUNNY   19  13  80 NW10      30.40R WCI   7
FORT MC COY    SUNNY     10   1  66 NW6       30.46S WCI   0
CAMP DOUGLAS   SUNNY     11   5  79 W12       30.41F WCI  -4
VIROQUA        FAIR      10   2  69 NW8       30.40R WCI  -1
WIS DELLS      SUNNY     14   7  72 NW8       30.38S WCI   3
$$

...ELSEWHERE IN WISCONSIN...


CITY           SKY/WX    TMP DP  RH WIND       PRES   REMARKS
MILWAUKEE      FLURRIES  24  15  68 NW10      30.33R WCI  14
MADISON        PTSUNNY   19   9  65 NW14      30.38R WCI   6
GREEN BAY      SUNNY     17   5  59 NW14      30.35S WCI   3
EAU CLAIRE     SUNNY      4  -4  69 W3        30.46F
BLACK RVR FLS  FAIR       9  -1  64 NW6       30.45F WCI  -1
MEDFORD        SUNNY      7  -1  70 N6        30.35S WCI  -3
WAUSAU         SUNNY     11   2  67 NW9       30.35S WCI  -2
WIS RAPIDS     SUNNY     11   2  67 NW8       30.40S WCI  -1
MARSHFIELD     SUNNY      8   0  69 NW12      30.37S WCI  -7
RICE LAKE      SUNNY      3  -6  67 W6        30.46F WCI  -8
$$

...NORTHEAST IOWA...


CITY           SKY/WX    TMP DP  RH WIND       PRES   REMARKS
DECORAH        SUNNY      7  -4  61 NW13      30.44S WCI  -9
MASON CITY     SUNNY     -1  -7  75 N12       30.50F WCI -18
CHARLES CITY   SUNNY      1  -6  71 NW10      30.49F WCI -14
OELWEIN        SUNNY      7   0  72 NW12      30.46F WCI  -9
$$

...ELSEWHERE IN IOWA...


CITY           SKY/WX    TMP DP  RH WIND       PRES   REMARKS
DES MOINES     MOSUNNY    8  -3  61 NW7       30.55S WCI  -3
IOWA CITY      SUNNY     15   7  70 NW9       30.50S WCI   3
FORT DODGE     SUNNY      0  -8  71 NW5       30.53S WCI -10
$$

...NORTHERN ILLINOIS...


CITY           SKY/WX    TMP DP  RH WIND       PRES   REMARKS
CHICAGO-OHARE  PTSUNNY   25  16  68 NW16      30.33R WCI  12
CHICAGO-MIDWAY PTSUNNY   29  18  63 NW14      30.33S WCI  18
MOLINE         PTSUNNY   21  13  71 W15       30.45R WCI   8
ROCKFORD       FLURRIES  24  16  71 N9        30.39R WCI  14
PEORIA         CLOUDY    26  18  71 NW12G22   30.43R HAZE    WCI  16
$$

NOTE: "FAIR" INDICATES FEW OR NO CLOUDS BELOW 12,000 FEET WITH NO
SIGNIFICANT WEATHER AND/OR OBSTRUCTIONS TO VISIBILITY. WIND
SPEEDS ARE IN MILES-PER-HOUR.



USA.gov is the U.S. government's official web portal to all federal, state and local government web resources and services.